Year,Month,Day,Hour,Minute,Value (Times are PST for temperature in C)
2017,08,06,00,00,15.70
2017,08,06,00,01,15.70
2017,08,06,00,02,15.70
2017,08,06,00,03,15.70
2017,08,06,00,04,15.70
2017,08,06,00,05,15.70
2017,08,06,00,06,15.70
2017,08,06,00,07,15.70
2017,08,06,00,08,15.70
2017,08,06,00,09,15.70
2017,08,06,00,10,15.70
2017,08,06,00,11,15.60
2017,08,06,00,12,15.60
2017,08,06,00,13,15.60
2017,08,06,00,14,15.60
2017,08,06,00,15,15.60
2017,08,06,00,16,15.60
2017,08,06,00,17,15.60
2017,08,06,00,18,15.60
2017,08,06,00,19,15.60
2017,08,06,00,20,15.60
2017,08,06,00,21,15.60
2017,08,06,00,22,15.50
2017,08,06,00,23,15.50
2017,08,06,00,24,15.50
2017,08,06,00,25,15.40
2017,08,06,00,26,15.40
2017,08,06,00,27,15.40
2017,08,06,00,28,15.40
2017,08,06,00,29,15.40
2017,08,06,00,30,15.40
2017,08,06,00,31,15.40
2017,08,06,00,32,15.40
2017,08,06,00,33,15.40
2017,08,06,00,34,15.30
2017,08,06,00,35,15.30
2017,08,06,00,36,15.30
2017,08,06,00,37,15.30
2017,08,06,00,38,15.30
2017,08,06,00,39,15.30
2017,08,06,00,40,15.30
2017,08,06,00,41,15.30
2017,08,06,00,42,15.30
2017,08,06,00,43,15.30
2017,08,06,00,44,15.30
2017,08,06,00,45,15.30
2017,08,06,00,46,15.30
2017,08,06,00,47,15.30
2017,08,06,00,48,15.30
2017,08,06,00,49,15.30
2017,08,06,00,50,15.30
2017,08,06,00,51,15.30
2017,08,06,00,52,15.20
2017,08,06,00,53,15.20
2017,08,06,00,54,15.20
2017,08,06,00,55,15.20
2017,08,06,00,56,15.20
2017,08,06,00,57,15.20
2017,08,06,00,58,15.20
2017,08,06,00,59,15.20
2017,08,06,01,00,15.20
2017,08,06,01,01,15.20
2017,08,06,01,02,15.20
2017,08,06,01,03,15.20
2017,08,06,01,04,15.20
2017,08,06,01,05,15.20
2017,08,06,01,06,15.20
2017,08,06,01,07,15.10
2017,08,06,01,08,15.10
2017,08,06,01,09,15.10
2017,08,06,01,10,15.10
2017,08,06,01,11,15.10
2017,08,06,01,12,15.10
2017,08,06,01,13,15.10
2017,08,06,01,14,15.10
2017,08,06,01,15,15.10
2017,08,06,01,16,15.10
2017,08,06,01,17,15.10
2017,08,06,01,18,15.10
2017,08,06,01,19,15.00
2017,08,06,01,20,15.00
2017,08,06,01,21,15.00
2017,08,06,01,22,15.00
2017,08,06,01,23,15.00
2017,08,06,01,24,15.00
2017,08,06,01,25,14.90
2017,08,06,01,26,14.90
2017,08,06,01,27,14.90
2017,08,06,01,28,14.90
2017,08,06,01,29,14.90
2017,08,06,01,30,14.90
2017,08,06,01,31,14.90
2017,08,06,01,32,14.90
2017,08,06,01,33,14.90
2017,08,06,01,34,14.90
2017,08,06,01,35,14.80
2017,08,06,01,36,14.80
2017,08,06,01,37,14.80
2017,08,06,01,38,14.80
2017,08,06,01,39,14.80
2017,08,06,01,40,14.80
2017,08,06,01,41,14.80
2017,08,06,01,42,14.80
2017,08,06,01,43,14.80
2017,08,06,01,44,14.80
2017,08,06,01,45,14.80
2017,08,06,01,46,14.80
2017,08,06,01,47,14.80
2017,08,06,01,48,14.80
2017,08,06,01,49,14.80
2017,08,06,01,50,14.80
2017,08,06,01,51,14.80
2017,08,06,01,52,14.80
2017,08,06,01,53,14.80
2017,08,06,01,54,14.80
2017,08,06,01,55,14.80
2017,08,06,01,56,14.80
2017,08,06,01,57,14.80
2017,08,06,01,58,14.80
2017,08,06,01,59,14.80
2017,08,06,02,00,14.80
2017,08,06,02,01,14.70
2017,08,06,02,02,14.70
2017,08,06,02,03,14.70
2017,08,06,02,04,14.70
2017,08,06,02,05,14.70
2017,08,06,02,06,14.70
2017,08,06,02,07,14.70
2017,08,06,02,08,14.70
2017,08,06,02,09,14.70
2017,08,06,02,10,14.70
2017,08,06,02,11,14.70
2017,08,06,02,12,14.70
2017,08,06,02,13,14.60
2017,08,06,02,14,14.60
2017,08,06,02,15,14.60
2017,08,06,02,16,14.60
2017,08,06,02,17,14.60
2017,08,06,02,18,14.60
2017,08,06,02,19,14.60
2017,08,06,02,20,14.60
2017,08,06,02,21,14.60
2017,08,06,02,22,14.60
2017,08,06,02,23,14.60
2017,08,06,02,24,14.60
2017,08,06,02,25,14.60
2017,08,06,02,26,14.60
2017,08,06,02,27,14.60
2017,08,06,02,28,14.60
2017,08,06,02,29,14.60
2017,08,06,02,30,14.60
2017,08,06,02,31,14.60
2017,08,06,02,32,14.60
2017,08,06,02,33,14.50
2017,08,06,02,34,14.50
2017,08,06,02,35,14.50
2017,08,06,02,36,14.50
2017,08,06,02,37,14.50
2017,08,06,02,38,14.50
2017,08,06,02,39,14.50
2017,08,06,02,40,14.40
2017,08,06,02,41,14.40
2017,08,06,02,42,14.40
2017,08,06,02,43,14.40
2017,08,06,02,44,14.40
2017,08,06,02,45,14.40
2017,08,06,02,46,14.30
2017,08,06,02,47,14.30
2017,08,06,02,48,14.30
2017,08,06,02,49,14.30
2017,08,06,02,50,14.30
2017,08,06,02,51,14.30
2017,08,06,02,52,14.30
2017,08,06,02,53,14.30
2017,08,06,02,54,14.30
2017,08,06,02,55,14.30
2017,08,06,02,56,14.30
2017,08,06,02,57,14.30
2017,08,06,02,58,14.20
2017,08,06,02,59,14.20
2017,08,06,03,00,14.20
2017,08,06,03,01,14.20
2017,08,06,03,02,14.20
2017,08,06,03,03,14.20
2017,08,06,03,04,14.20
2017,08,06,03,05,14.20
2017,08,06,03,06,14.20
2017,08,06,03,07,14.20
2017,08,06,03,08,14.20
2017,08,06,03,09,14.20
2017,08,06,03,10,14.20
2017,08,06,03,11,14.10
2017,08,06,03,12,14.10
2017,08,06,03,13,14.10
2017,08,06,03,14,14.10
2017,08,06,03,15,14.10
2017,08,06,03,16,14.10
2017,08,06,03,17,14.10
2017,08,06,03,18,14.10
2017,08,06,03,19,14.10
2017,08,06,03,20,14.10
2017,08,06,03,21,14.10
2017,08,06,03,22,14.10
2017,08,06,03,23,14.10
2017,08,06,03,24,14.00
2017,08,06,03,25,14.00
2017,08,06,03,26,14.00
2017,08,06,03,27,14.00
2017,08,06,03,28,14.00
2017,08,06,03,29,13.90
2017,08,06,03,30,13.90
2017,08,06,03,31,13.90
2017,08,06,03,32,13.90
2017,08,06,03,33,13.90
2017,08,06,03,34,13.90
2017,08,06,03,35,13.80
2017,08,06,03,36,13.80
2017,08,06,03,37,13.80
2017,08,06,03,38,13.80
2017,08,06,03,39,13.80
2017,08,06,03,40,13.80
2017,08,06,03,41,13.80
2017,08,06,03,42,13.80
2017,08,06,03,43,13.80
2017,08,06,03,44,13.80
2017,08,06,03,45,13.80
2017,08,06,03,46,13.80
2017,08,06,03,47,13.80
2017,08,06,03,48,13.80
2017,08,06,03,49,13.80
2017,08,06,03,50,13.70
2017,08,06,03,51,13.70
2017,08,06,03,52,13.70
2017,08,06,03,53,13.70
2017,08,06,03,54,13.70
2017,08,06,03,55,13.70
2017,08,06,03,56,13.70
2017,08,06,03,57,13.70
2017,08,06,03,58,13.70
2017,08,06,03,59,13.70
2017,08,06,04,00,13.60
2017,08,06,04,01,13.60
2017,08,06,04,02,13.60
2017,08,06,04,03,13.60
2017,08,06,04,04,13.60
2017,08,06,04,05,13.50
2017,08,06,04,06,13.50
2017,08,06,04,07,13.50
2017,08,06,04,08,13.50
2017,08,06,04,09,13.40
2017,08,06,04,10,13.40
2017,08,06,04,11,13.40
2017,08,06,04,12,13.40
2017,08,06,04,13,13.40
2017,08,06,04,14,13.40
2017,08,06,04,15,13.40
2017,08,06,04,16,13.40
2017,08,06,04,17,13.40
2017,08,06,04,18,13.40
2017,08,06,04,19,13.40
2017,08,06,04,20,13.40
2017,08,06,04,21,13.40
2017,08,06,04,22,13.30
2017,08,06,04,23,13.30
2017,08,06,04,24,13.30
2017,08,06,04,25,13.30
2017,08,06,04,26,13.30
2017,08,06,04,27,13.30
2017,08,06,04,28,13.30
2017,08,06,04,29,13.20
2017,08,06,04,30,13.20
2017,08,06,04,31,13.20
2017,08,06,04,32,13.20
2017,08,06,04,33,13.20
2017,08,06,04,34,13.20
2017,08,06,04,35,13.20
2017,08,06,04,36,13.20
2017,08,06,04,37,13.20
2017,08,06,04,38,13.20
2017,08,06,04,39,13.20
2017,08,06,04,40,13.20
2017,08,06,04,41,13.20
2017,08,06,04,42,13.20
2017,08,06,04,43,13.20
2017,08,06,04,44,13.20
2017,08,06,04,45,13.10
2017,08,06,04,46,13.10
2017,08,06,04,47,13.10
2017,08,06,04,48,13.10
2017,08,06,04,49,13.10
2017,08,06,04,50,13.10
2017,08,06,04,51,13.10
2017,08,06,04,52,13.10
2017,08,06,04,53,13.00
2017,08,06,04,54,13.00
2017,08,06,04,55,13.00
2017,08,06,04,56,12.90
2017,08,06,04,57,12.90
2017,08,06,04,58,12.90
2017,08,06,04,59,12.90
2017,08,06,05,00,12.90
2017,08,06,05,01,12.90
2017,08,06,05,02,12.90
2017,08,06,05,03,12.90
2017,08,06,05,04,12.90
2017,08,06,05,05,12.90
2017,08,06,05,06,12.90
2017,08,06,05,07,12.90
2017,08,06,05,08,12.90
2017,08,06,05,09,12.90
2017,08,06,05,10,12.90
2017,08,06,05,11,12.90
2017,08,06,05,12,12.90
2017,08,06,05,13,12.80
2017,08,06,05,14,12.80
2017,08,06,05,15,12.80
2017,08,06,05,16,12.80
2017,08,06,05,17,12.80
2017,08,06,05,18,12.70
2017,08,06,05,19,12.70
2017,08,06,05,20,12.70
2017,08,06,05,21,12.70
2017,08,06,05,22,12.70
2017,08,06,05,23,12.70
2017,08,06,05,24,12.70
2017,08,06,05,25,12.70
2017,08,06,05,26,12.70
2017,08,06,05,27,12.70
2017,08,06,05,28,12.70
2017,08,06,05,29,12.70
2017,08,06,05,30,12.70
2017,08,06,05,31,12.70
2017,08,06,05,32,12.70
2017,08,06,05,33,12.70
2017,08,06,05,34,12.60
2017,08,06,05,35,12.60
2017,08,06,05,36,12.60
2017,08,06,05,37,12.60
2017,08,06,05,38,12.60
2017,08,06,05,39,12.60
2017,08,06,05,40,12.60
2017,08,06,05,41,12.60
2017,08,06,05,42,12.60
2017,08,06,05,43,12.60
2017,08,06,05,44,12.60
2017,08,06,05,45,12.60
2017,08,06,05,46,12.60
2017,08,06,05,47,12.60
2017,08,06,05,48,12.60
2017,08,06,05,49,12.60
2017,08,06,05,50,12.60
2017,08,06,05,51,12.60
2017,08,06,05,52,12.60
2017,08,06,05,53,12.60
2017,08,06,05,54,12.50
2017,08,06,05,55,12.50
2017,08,06,05,56,12.50
2017,08,06,05,57,12.50
2017,08,06,05,58,12.50
2017,08,06,05,59,12.50
2017,08,06,06,00,12.40
2017,08,06,06,01,12.40
2017,08,06,06,02,12.40
2017,08,06,06,03,12.40
2017,08,06,06,04,12.40
2017,08,06,06,05,12.40
2017,08,06,06,06,12.30
2017,08,06,06,07,12.30
2017,08,06,06,08,12.30
2017,08,06,06,09,12.30
2017,08,06,06,10,12.30
2017,08,06,06,11,12.30
2017,08,06,06,12,12.30
2017,08,06,06,13,12.30
2017,08,06,06,14,12.30
2017,08,06,06,15,12.30
2017,08,06,06,16,12.30
2017,08,06,06,17,12.30
2017,08,06,06,18,12.30
2017,08,06,06,19,12.30
2017,08,06,06,20,12.30
2017,08,06,06,21,12.30
2017,08,06,06,22,12.30
2017,08,06,06,23,12.30
2017,08,06,06,24,12.30
2017,08,06,06,25,12.30
2017,08,06,06,26,12.30
2017,08,06,06,27,12.30
2017,08,06,06,28,12.30
2017,08,06,06,29,12.30
2017,08,06,06,30,12.30
2017,08,06,06,31,12.20
2017,08,06,06,32,12.30
2017,08,06,06,33,12.30
2017,08,06,06,34,12.20
2017,08,06,06,35,12.20
2017,08,06,06,36,12.20
2017,08,06,06,37,12.20
2017,08,06,06,38,12.20
2017,08,06,06,39,12.20
2017,08,06,06,40,12.20
2017,08,06,06,41,12.20
2017,08,06,06,42,12.20
2017,08,06,06,43,12.20
2017,08,06,06,44,12.20
2017,08,06,06,45,12.20
2017,08,06,06,46,12.20
2017,08,06,06,47,12.20
2017,08,06,06,48,12.20
2017,08,06,06,49,12.20
2017,08,06,06,50,12.30
2017,08,06,06,51,12.30
2017,08,06,06,52,12.30
2017,08,06,06,53,12.30
2017,08,06,06,54,12.30
2017,08,06,06,55,12.30
2017,08,06,06,56,12.30
2017,08,06,06,57,12.30
2017,08,06,06,58,12.30
2017,08,06,06,59,12.30
2017,08,06,07,00,12.30
2017,08,06,07,01,12.40
2017,08,06,07,02,12.40
2017,08,06,07,03,12.40
2017,08,06,07,04,12.40
2017,08,06,07,05,12.40
2017,08,06,07,06,12.40
2017,08,06,07,07,12.40
2017,08,06,07,08,12.40
2017,08,06,07,09,12.50
2017,08,06,07,10,12.50
2017,08,06,07,11,12.50
2017,08,06,07,12,12.50
2017,08,06,07,13,12.50
2017,08,06,07,14,12.60
2017,08,06,07,15,12.60
2017,08,06,07,16,12.60
2017,08,06,07,17,12.60
2017,08,06,07,18,12.60
2017,08,06,07,19,12.60
2017,08,06,07,20,12.60
2017,08,06,07,21,12.70
2017,08,06,07,22,12.70
2017,08,06,07,23,12.70
2017,08,06,07,24,12.70
2017,08,06,07,25,12.80
2017,08,06,07,26,12.80
2017,08,06,07,27,12.80
2017,08,06,07,28,12.80
2017,08,06,07,29,12.90
2017,08,06,07,30,12.90
2017,08,06,07,31,12.90
2017,08,06,07,32,12.90
2017,08,06,07,33,13.00
2017,08,06,07,34,13.10
2017,08,06,07,35,13.10
2017,08,06,07,36,13.10
2017,08,06,07,37,13.10
2017,08,06,07,38,13.20
2017,08,06,07,39,13.20
2017,08,06,07,40,13.20
2017,08,06,07,41,13.20
2017,08,06,07,42,13.30
2017,08,06,07,43,13.30
2017,08,06,07,44,13.40
2017,08,06,07,45,13.40
2017,08,06,07,46,13.40
2017,08,06,07,47,13.50
2017,08,06,07,48,13.50
2017,08,06,07,49,13.60
2017,08,06,07,50,13.60
2017,08,06,07,51,13.60
2017,08,06,07,52,13.70
2017,08,06,07,53,13.70
2017,08,06,07,54,13.80
2017,08,06,07,55,13.80
2017,08,06,07,56,13.90
2017,08,06,07,57,13.90
2017,08,06,07,58,14.00
2017,08,06,07,59,14.00
2017,08,06,08,00,14.10
2017,08,06,08,01,14.10
2017,08,06,08,02,14.20
2017,08,06,08,03,14.20
2017,08,06,08,04,14.30
2017,08,06,08,05,14.30
2017,08,06,08,06,14.30
2017,08,06,08,07,14.40
2017,08,06,08,08,14.40
2017,08,06,08,09,14.40
2017,08,06,08,10,14.50
2017,08,06,08,11,14.50
2017,08,06,08,12,14.60
2017,08,06,08,13,14.60
2017,08,06,08,14,14.60
2017,08,06,08,15,14.60
2017,08,06,08,16,14.70
2017,08,06,08,17,14.70
2017,08,06,08,18,14.70
2017,08,06,08,19,14.70
2017,08,06,08,20,14.80
2017,08,06,08,21,14.80
2017,08,06,08,22,14.80
2017,08,06,08,23,14.80
2017,08,06,08,24,14.90
2017,08,06,08,25,14.90
2017,08,06,08,26,15.00
2017,08,06,08,27,15.00
2017,08,06,08,28,15.10
2017,08,06,08,29,15.10
2017,08,06,08,30,15.10
2017,08,06,08,31,15.20
2017,08,06,08,32,15.20
2017,08,06,08,33,15.20
2017,08,06,08,34,15.30
2017,08,06,08,35,15.30
2017,08,06,08,36,15.30
2017,08,06,08,37,15.40
2017,08,06,08,38,15.40
2017,08,06,08,39,15.40
2017,08,06,08,40,15.50
2017,08,06,08,41,15.50
2017,08,06,08,42,15.60
2017,08,06,08,43,15.60
2017,08,06,08,44,15.70
2017,08,06,08,45,15.70
2017,08,06,08,46,15.80
2017,08,06,08,47,15.80
2017,08,06,08,48,15.90
2017,08,06,08,49,15.90
2017,08,06,08,50,15.90
2017,08,06,08,51,16.00
2017,08,06,08,52,16.00
2017,08,06,08,53,16.10
2017,08,06,08,54,16.10
2017,08,06,08,55,16.10
2017,08,06,08,56,16.20
2017,08,06,08,57,16.20
2017,08,06,08,58,16.30
2017,08,06,08,59,16.30
2017,08,06,09,00,16.40
2017,08,06,09,01,16.40
2017,08,06,09,02,16.50
2017,08,06,09,03,16.60
2017,08,06,09,04,16.60
2017,08,06,09,05,16.70
2017,08,06,09,06,16.80
2017,08,06,09,07,16.80
2017,08,06,09,08,16.90
2017,08,06,09,09,17.00
2017,08,06,09,10,17.00
2017,08,06,09,11,17.10
2017,08,06,09,12,17.10
2017,08,06,09,13,17.20
2017,08,06,09,14,17.20
2017,08,06,09,15,17.30
2017,08,06,09,16,17.30
2017,08,06,09,17,17.30
2017,08,06,09,18,17.40
2017,08,06,09,19,17.40
2017,08,06,09,20,17.40
2017,08,06,09,21,17.40
2017,08,06,09,22,17.40
2017,08,06,09,23,17.40
2017,08,06,09,24,17.40
2017,08,06,09,25,17.40
2017,08,06,09,26,17.40
2017,08,06,09,27,17.40
2017,08,06,09,28,17.40
2017,08,06,09,29,17.30
2017,08,06,09,30,17.30
2017,08,06,09,31,17.30
2017,08,06,09,32,17.30
2017,08,06,09,33,17.30
2017,08,06,09,34,17.30
2017,08,06,09,35,17.20
2017,08,06,09,36,17.20
2017,08,06,09,37,17.20
2017,08,06,09,38,17.20
2017,08,06,09,39,17.20
2017,08,06,09,40,17.20
2017,08,06,09,41,17.10
2017,08,06,09,42,17.10
2017,08,06,09,43,17.10
2017,08,06,09,44,17.10
2017,08,06,09,45,17.10
2017,08,06,09,46,17.10
2017,08,06,09,47,17.10
2017,08,06,09,48,17.10
2017,08,06,09,49,17.10
2017,08,06,09,50,17.10
2017,08,06,09,51,17.10
2017,08,06,09,52,17.10
2017,08,06,09,53,17.10
2017,08,06,09,54,17.10
2017,08,06,09,55,17.10
2017,08,06,09,56,17.10
2017,08,06,09,57,17.10
2017,08,06,09,58,17.10
2017,08,06,09,59,17.10
2017,08,06,10,00,17.10
2017,08,06,10,01,17.10
2017,08,06,10,02,17.20
2017,08,06,10,03,17.20
2017,08,06,10,04,17.20
2017,08,06,10,05,17.20
2017,08,06,10,06,17.30
2017,08,06,10,07,17.30
2017,08,06,10,08,17.30
2017,08,06,10,09,17.30
2017,08,06,10,10,17.40
2017,08,06,10,11,17.40
2017,08,06,10,12,17.40
2017,08,06,10,13,17.40
2017,08,06,10,14,17.50
2017,08,06,10,15,17.60
2017,08,06,10,16,17.60
2017,08,06,10,17,17.70
2017,08,06,10,18,17.70
2017,08,06,10,19,17.70
2017,08,06,10,20,17.70
2017,08,06,10,21,17.70
2017,08,06,10,22,17.80
2017,08,06,10,23,17.80
2017,08,06,10,24,17.80
2017,08,06,10,25,17.90
2017,08,06,10,26,17.90
2017,08,06,10,27,17.90
2017,08,06,10,28,17.90
2017,08,06,10,29,18.00
2017,08,06,10,30,18.00
2017,08,06,10,31,18.00
2017,08,06,10,32,18.10
2017,08,06,10,33,18.10
2017,08,06,10,34,18.20
2017,08,06,10,35,18.30
2017,08,06,10,36,18.30
2017,08,06,10,37,18.40
2017,08,06,10,38,18.40
2017,08,06,10,39,18.40
2017,08,06,10,40,18.50
2017,08,06,10,41,18.50
2017,08,06,10,42,18.60
2017,08,06,10,43,18.60
2017,08,06,10,44,18.70
2017,08,06,10,45,18.70
2017,08,06,10,46,18.70
2017,08,06,10,47,18.80
2017,08,06,10,48,18.80
2017,08,06,10,49,18.80
2017,08,06,10,50,18.80
2017,08,06,10,51,18.70
2017,08,06,10,52,18.70
2017,08,06,10,53,18.80
2017,08,06,10,54,18.80
2017,08,06,10,55,18.80
2017,08,06,10,56,18.80
2017,08,06,10,57,18.70
2017,08,06,10,58,18.70
2017,08,06,10,59,18.70
2017,08,06,11,00,18.70
2017,08,06,11,01,18.70
2017,08,06,11,02,18.70
2017,08,06,11,03,18.80
2017,08,06,11,04,18.80
2017,08,06,11,05,18.80
2017,08,06,11,06,18.90
2017,08,06,11,07,18.90
2017,08,06,11,08,18.90
2017,08,06,11,09,19.00
2017,08,06,11,10,19.00
2017,08,06,11,11,19.00
2017,08,06,11,12,19.00
2017,08,06,11,13,19.10
2017,08,06,11,14,19.10
2017,08,06,11,15,19.20
2017,08,06,11,16,19.20
2017,08,06,11,17,19.30
2017,08,06,11,18,19.30
2017,08,06,11,19,19.40
2017,08,06,11,20,19.50
2017,08,06,11,21,19.50
2017,08,06,11,22,19.70
2017,08,06,11,23,19.80
2017,08,06,11,24,19.90
2017,08,06,11,25,20.10
2017,08,06,11,26,20.20
2017,08,06,11,27,20.30
2017,08,06,11,28,20.40
2017,08,06,11,29,20.50
2017,08,06,11,30,20.60
2017,08,06,11,31,20.70
2017,08,06,11,32,20.80
2017,08,06,11,33,20.80
2017,08,06,11,34,20.90
2017,08,06,11,35,21.00
2017,08,06,11,36,21.00
2017,08,06,11,37,21.00
2017,08,06,11,38,20.90
2017,08,06,11,39,20.90
2017,08,06,11,40,20.90
2017,08,06,11,41,20.90
2017,08,06,11,42,20.80
2017,08,06,11,43,20.80
2017,08,06,11,44,20.70
2017,08,06,11,45,20.70
2017,08,06,11,46,20.70
2017,08,06,11,47,20.80
2017,08,06,11,48,20.80
2017,08,06,11,49,20.90
2017,08,06,11,50,21.00
2017,08,06,11,51,21.10
2017,08,06,11,52,21.10
2017,08,06,11,53,21.20
2017,08,06,11,54,21.30
2017,08,06,11,55,21.30
2017,08,06,11,56,21.40
2017,08,06,11,57,21.40
2017,08,06,11,58,21.40
2017,08,06,11,59,21.50
2017,08,06,12,00,21.50
2017,08,06,12,01,21.50
2017,08,06,12,02,21.50
2017,08,06,12,03,21.50
2017,08,06,12,04,21.40
2017,08,06,12,05,21.40
2017,08,06,12,06,21.50
2017,08,06,12,07,21.50
2017,08,06,12,08,21.40
2017,08,06,12,09,21.40
2017,08,06,12,10,21.40
2017,08,06,12,11,21.30
2017,08,06,12,12,21.20
2017,08,06,12,13,21.20
2017,08,06,12,14,21.10
2017,08,06,12,15,21.20
2017,08,06,12,16,21.20
2017,08,06,12,17,21.10
2017,08,06,12,18,21.10
2017,08,06,12,19,21.10
2017,08,06,12,20,21.20
2017,08,06,12,21,21.20
2017,08,06,12,22,21.30
2017,08,06,12,23,21.40
2017,08,06,12,24,21.50
2017,08,06,12,25,21.60
2017,08,06,12,26,21.60
2017,08,06,12,27,21.50
2017,08,06,12,28,21.50
2017,08,06,12,29,21.50
2017,08,06,12,30,21.40
2017,08,06,12,31,21.40
2017,08,06,12,32,21.40
2017,08,06,12,33,21.40
2017,08,06,12,34,21.40
2017,08,06,12,35,21.50
2017,08,06,12,36,21.50
2017,08,06,12,37,21.50
2017,08,06,12,38,21.50
2017,08,06,12,39,21.40
2017,08,06,12,40,21.40
2017,08,06,12,41,21.30
2017,08,06,12,42,21.30
2017,08,06,12,43,21.20
2017,08,06,12,44,21.20
2017,08,06,12,45,21.10
2017,08,06,12,46,21.10
2017,08,06,12,47,21.10
2017,08,06,12,48,21.00
2017,08,06,12,49,21.00
2017,08,06,12,50,21.00
2017,08,06,12,51,20.90
2017,08,06,12,52,20.90
2017,08,06,12,53,21.00
2017,08,06,12,54,21.00
2017,08,06,12,55,21.10
2017,08,06,12,56,21.10
2017,08,06,12,57,21.20
2017,08,06,12,58,21.20
2017,08,06,12,59,21.20
2017,08,06,13,00,21.10
2017,08,06,13,01,21.10
2017,08,06,13,02,21.00
2017,08,06,13,03,21.00
2017,08,06,13,04,20.90
2017,08,06,13,05,20.80
2017,08,06,13,06,20.80
2017,08,06,13,07,20.80
2017,08,06,13,08,20.80
2017,08,06,13,09,20.80
2017,08,06,13,10,20.80
2017,08,06,13,11,20.90
2017,08,06,13,12,21.00
2017,08,06,13,13,21.00
2017,08,06,13,14,21.10
2017,08,06,13,15,21.10
2017,08,06,13,16,21.20
2017,08,06,13,17,21.20
2017,08,06,13,18,21.20
2017,08,06,13,19,21.30
2017,08,06,13,20,21.30
2017,08,06,13,21,21.20
2017,08,06,13,22,21.20
2017,08,06,13,23,21.20
2017,08,06,13,24,21.20
2017,08,06,13,25,21.20
2017,08,06,13,26,21.20
2017,08,06,13,27,21.20
2017,08,06,13,28,21.20
2017,08,06,13,29,21.20
2017,08,06,13,30,21.10
2017,08,06,13,31,21.10
2017,08,06,13,32,21.00
2017,08,06,13,33,20.90
2017,08,06,13,34,21.00
2017,08,06,13,35,21.00
2017,08,06,13,36,21.10
2017,08,06,13,37,21.10
2017,08,06,13,38,21.10
2017,08,06,13,39,21.20
2017,08,06,13,40,21.20
2017,08,06,13,41,21.20
2017,08,06,13,42,21.10
2017,08,06,13,43,21.10
2017,08,06,13,44,21.10
2017,08,06,13,45,21.00
2017,08,06,13,46,21.00
2017,08,06,13,47,21.10
2017,08,06,13,48,21.10
2017,08,06,13,49,21.10
2017,08,06,13,50,21.10
2017,08,06,13,51,21.10
2017,08,06,13,52,21.10
2017,08,06,13,53,21.10
2017,08,06,13,54,21.10
2017,08,06,13,55,21.10
2017,08,06,13,56,21.10
2017,08,06,13,57,21.10
2017,08,06,13,58,21.10
2017,08,06,13,59,21.20
2017,08,06,14,00,21.20
2017,08,06,14,01,21.20
2017,08,06,14,02,21.20
2017,08,06,14,03,21.30
2017,08,06,14,04,21.30
2017,08,06,14,05,21.30
2017,08,06,14,06,21.40
2017,08,06,14,07,21.40
2017,08,06,14,08,21.50
2017,08,06,14,09,21.50
2017,08,06,14,10,21.50
2017,08,06,14,11,21.50
2017,08,06,14,12,21.50
2017,08,06,14,13,21.50
2017,08,06,14,14,21.40
2017,08,06,14,15,21.40
2017,08,06,14,16,21.30
2017,08,06,14,17,21.30
2017,08,06,14,18,21.30
2017,08,06,14,19,21.30
2017,08,06,14,20,21.30
2017,08,06,14,21,21.30
2017,08,06,14,22,21.30
2017,08,06,14,23,21.30
2017,08,06,14,24,21.30
2017,08,06,14,25,21.30
2017,08,06,14,26,21.30
2017,08,06,14,27,21.30
2017,08,06,14,28,21.40
2017,08,06,14,29,21.40
2017,08,06,14,30,21.50
2017,08,06,14,31,21.60
2017,08,06,14,32,21.70
2017,08,06,14,33,21.80
2017,08,06,14,34,21.90
2017,08,06,14,35,22.00
2017,08,06,14,36,22.10
2017,08,06,14,37,22.20
2017,08,06,14,38,22.30
2017,08,06,14,39,22.30
2017,08,06,14,40,22.40
2017,08,06,14,41,22.40
2017,08,06,14,42,22.40
2017,08,06,14,43,22.40
2017,08,06,14,44,22.40
2017,08,06,14,45,22.40
2017,08,06,14,46,22.40
2017,08,06,14,47,22.40
2017,08,06,14,48,22.50
2017,08,06,14,49,22.50
2017,08,06,14,50,22.50
2017,08,06,14,51,22.60
2017,08,06,14,52,22.70
2017,08,06,14,53,22.70
2017,08,06,14,54,22.70
2017,08,06,14,55,22.80
2017,08,06,14,56,22.80
2017,08,06,14,57,22.90
2017,08,06,14,58,22.90
2017,08,06,14,59,22.90
2017,08,06,15,00,22.90
2017,08,06,15,01,22.90
2017,08,06,15,02,22.90
2017,08,06,15,03,22.90
2017,08,06,15,04,22.90
2017,08,06,15,05,23.00
2017,08,06,15,06,23.00
2017,08,06,15,07,23.00
2017,08,06,15,08,23.00
2017,08,06,15,09,22.90
2017,08,06,15,10,22.90
2017,08,06,15,11,22.90
2017,08,06,15,12,22.90
2017,08,06,15,13,22.90
2017,08,06,15,14,22.80
2017,08,06,15,15,22.80
2017,08,06,15,16,22.90
2017,08,06,15,17,22.90
2017,08,06,15,18,22.90
2017,08,06,15,19,22.90
2017,08,06,15,20,22.90
2017,08,06,15,21,22.90
2017,08,06,15,22,22.90
2017,08,06,15,23,22.90
2017,08,06,15,24,22.90
2017,08,06,15,25,23.00
2017,08,06,15,26,23.00
2017,08,06,15,27,23.10
2017,08,06,15,28,23.10
2017,08,06,15,29,23.10
2017,08,06,15,30,23.10
2017,08,06,15,31,23.10
2017,08,06,15,32,23.00
2017,08,06,15,33,23.00
2017,08,06,15,34,23.00
2017,08,06,15,35,23.10
2017,08,06,15,36,23.10
2017,08,06,15,37,23.20
2017,08,06,15,38,23.20
2017,08,06,15,39,23.20
2017,08,06,15,40,23.20
2017,08,06,15,41,23.20
2017,08,06,15,42,23.20
2017,08,06,15,43,23.20
2017,08,06,15,44,23.20
2017,08,06,15,45,23.20
2017,08,06,15,46,23.30
2017,08,06,15,47,23.30
2017,08,06,15,48,23.30
2017,08,06,15,49,23.30
2017,08,06,15,50,23.20
2017,08,06,15,51,23.20
2017,08,06,15,52,23.20
2017,08,06,15,53,23.20
2017,08,06,15,54,23.20
2017,08,06,15,55,23.20
2017,08,06,15,56,23.20
2017,08,06,15,57,23.20
2017,08,06,15,58,23.20
2017,08,06,15,59,23.20
2017,08,06,16,00,23.20
2017,08,06,16,01,23.20
2017,08,06,16,02,23.20
2017,08,06,16,03,23.20
2017,08,06,16,04,23.20
2017,08,06,16,05,23.20
2017,08,06,16,06,23.20
2017,08,06,16,07,23.30
2017,08,06,16,08,23.30
2017,08,06,16,09,23.30
2017,08,06,16,10,23.30
2017,08,06,16,11,23.40
2017,08,06,16,12,23.40
2017,08,06,16,13,23.40
2017,08,06,16,14,23.40
2017,08,06,16,15,23.40
2017,08,06,16,16,23.40
2017,08,06,16,17,23.40
2017,08,06,16,18,23.40
2017,08,06,16,19,23.40
2017,08,06,16,20,23.30
2017,08,06,16,21,23.30
2017,08,06,16,22,23.30
2017,08,06,16,23,23.30
2017,08,06,16,24,23.30
2017,08,06,16,25,23.40
2017,08,06,16,26,23.40
2017,08,06,16,27,23.50
2017,08,06,16,28,23.50
2017,08,06,16,29,23.50
2017,08,06,16,30,23.50
2017,08,06,16,31,23.50
2017,08,06,16,32,23.50
2017,08,06,16,33,23.50
2017,08,06,16,34,23.50
2017,08,06,16,35,23.50
2017,08,06,16,36,23.50
2017,08,06,16,37,23.50
2017,08,06,16,38,23.40
2017,08,06,16,39,23.50
2017,08,06,16,40,23.50
2017,08,06,16,41,23.60
2017,08,06,16,42,23.60
2017,08,06,16,43,23.60
2017,08,06,16,44,23.60
2017,08,06,16,45,23.60
2017,08,06,16,46,23.60
2017,08,06,16,47,23.60
2017,08,06,16,48,23.60
2017,08,06,16,49,23.60
2017,08,06,16,50,23.60
2017,08,06,16,51,23.60
2017,08,06,16,52,23.70
2017,08,06,16,53,23.70
2017,08,06,16,54,23.70
2017,08,06,16,55,23.70
2017,08,06,16,56,23.80
2017,08,06,16,57,23.80
2017,08,06,16,58,23.80
2017,08,06,16,59,23.80
2017,08,06,17,00,23.80
2017,08,06,17,01,23.90
2017,08,06,17,02,23.90
2017,08,06,17,03,23.90
2017,08,06,17,04,23.90
2017,08,06,17,05,23.90
2017,08,06,17,06,23.90
2017,08,06,17,07,23.90
2017,08,06,17,08,23.90
2017,08,06,17,09,23.90
2017,08,06,17,10,23.90
2017,08,06,17,11,23.90
2017,08,06,17,12,23.90
2017,08,06,17,13,24.00
2017,08,06,17,14,24.00
2017,08,06,17,15,24.00
2017,08,06,17,16,24.10
2017,08,06,17,17,24.10
2017,08,06,17,18,24.10
2017,08,06,17,19,24.20